Keps
Threads by month
- ----- 2025 -----
- February
- January
- ----- 2024 -----
- December
- November
- October
- September
- August
- July
- June
- May
- April
- March
- February
- January
- ----- 2023 -----
- December
- November
- October
- September
- August
- July
- June
- May
- April
- March
- February
- January
- ----- 2022 -----
- December
- November
- October
- September
- August
- July
- June
- May
- April
- March
- February
- January
- ----- 2021 -----
- December
- November
- October
- September
- August
- July
- June
- May
- April
- March
- February
- January
- ----- 2020 -----
- December
- November
- October
- September
- August
- July
- June
- May
- April
- March
- February
- January
- ----- 2019 -----
- December
- November
- October
- September
- August
- July
- June
- May
- April
- March
- February
- January
- ----- 2018 -----
- December
- November
- October
- September
- August
- July
- June
- May
- April
- March
- February
- January
- ----- 2017 -----
- December
- November
- October
- September
- August
- July
- June
- May
- April
- March
- February
- January
- ----- 2016 -----
- December
- November
- October
- September
- August
- July
- June
- May
- April
- March
- February
- January
- ----- 2015 -----
- December
- November
- October
- September
- August
- July
- June
- May
- April
- March
- February
- January
- ----- 2014 -----
- December
- November
- October
- September
- August
- July
- June
- May
- April
- March
- February
- January
- ----- 2013 -----
- December
- November
- October
- September
- August
- July
- June
- May
- April
- March
- February
- January
- ----- 2012 -----
- December
- November
- October
- September
- August
- July
- June
- May
- April
- March
- February
- January
- ----- 2011 -----
- December
- November
- October
- September
- August
- July
- June
- May
- April
- March
- February
- January
- ----- 2010 -----
- December
- November
- October
- September
- August
- July
- June
- May
- April
- March
- February
- January
- ----- 2009 -----
- December
- November
- October
- September
- August
- July
- June
- May
- April
- March
- February
- January
- ----- 2008 -----
- December
- November
- October
- September
- August
- July
- June
- May
- April
- March
- February
- January
- ----- 2007 -----
- December
- November
- October
- September
- August
- July
- June
- May
- April
- March
- February
- January
- ----- 2006 -----
- December
- November
- October
- September
March 2022
- 1 participants
- 7 discussions
SB KEPS @ AMSAT $ORB22083.N
2Line Orbital Elements 22083.AMSAT
HR AMSAT ORBITAL ELEMENTS FOR AMATEUR SATELLITES IN NASA FORMAT
FROM WA5QGD FORT WORTH,TX March 24, 2022
BID: ORB22083.N
DECODE 2-LINE ELSETS WITH THE FOLLOWING KEY:
1 AAAAAU 00 0 0 BBBBB.BBBBBBBB .CCCCCCCC 00000-0 00000-0 0 DDDZ
2 AAAAA EEE.EEEE FFF.FFFF GGGGGGG HHH.HHHH III.IIII JJ.JJJJJJJJKKKKKZ
KEY: A-CATALOGNUM B-EPOCHTIME C-DECAY D-ELSETNUM E-INCLINATION F-RAAN
G-ECCENTRICITY H-ARGPERIGEE I-MNANOM J-MNMOTION K-ORBITNUM Z-CHECKSUM
TO ALL RADIO AMATEURS BT
AO-07
1 07530U 74089B 22083.90924615 -.00000024 00000-0 13403-3 0 9995
2 07530 101.8974 63.5365 0012050 202.6607 212.2116 12.53653617167116
UO-11
1 14781U 84021B 22083.53762057 .00000595 00000-0 78455-4 0 9998
2 14781 97.6133 74.8742 0007063 234.9477 125.1076 14.83499935 27451
LO-19
1 20442U 90005G 22083.89688628 .00000089 00000-0 49124-4 0 9997
2 20442 98.7842 47.5125 0012741 59.8308 300.4136 14.33032251681055
HUBBLE
1 20580U 90037B 22083.53339881 .00001892 00000-0 10215-3 0 9991
2 20580 28.4712 11.3316 0002592 197.9531 324.4615 15.10161846553369
MET-2/21
1 22782U 93055A 22083.55507595 .00000042 00000-0 24284-4 0 9999
2 22782 82.5454 81.6185 0021350 223.4543 255.2138 13.83849087442269
AO-27
1 22825U 93061C 22083.51112954 .00000029 00000-0 29137-4 0 9998
2 22825 98.8974 112.7116 0007485 303.1532 56.8931 14.30151778486014
IO-26
1 22826U 93061D 22083.55476384 .00000040 00000-0 33313-4 0 9997
2 22826 98.8917 112.6413 0007922 287.9066 72.1251 14.30494685486279
FO-29
1 24278U 96046B 22083.54719615 -.00000036 00000-0 -31494-5 0 9998
2 24278 98.5276 118.8768 0350977 143.4671 219.0972 13.53111577264127
NOAA-15
1 25338U 98030A 22083.52604468 .00000075 00000-0 49882-4 0 9998
2 25338 98.6546 114.1328 0010488 179.0953 181.0248 14.26100027240919
GO-32
1 25397U 98043D 22083.46415468 .00000040 00000-0 37088-4 0 9997
2 25397 98.8085 33.7513 0001628 35.3020 324.8265 14.23738143231336
ISS
1 25544U 98067A 22083.92879405 .00006443 00000-0 12273-3 0 9994
2 25544 51.6447 33.8992 0003962 308.9018 166.9492 15.49532225332117
NO-44
1 26931U 01043C 22083.58476344 .00000048 00000-0 50133-4 0 9993
2 26931 67.0495 277.4521 0007621 275.3133 84.7099 14.30673032 69261
SO-50
1 27607U 02058C 22083.56391422 .00000430 00000-0 80272-4 0 9994
2 27607 64.5552 201.6410 0072799 311.3188 48.1663 14.75962427 35849
CO-55
1 27844U 03031E 22083.52359679 .00000176 00000-0 98666-4 0 9996
2 27844 98.6818 92.4838 0009644 355.1069 5.0013 14.22398899971790
CO-57
1 27848U 03031J 22083.46034492 .00000147 00000-0 86475-4 0 9999
2 27848 98.6865 92.9569 0009821 9.3570 350.7789 14.21963141971601
RS-22
1 27939U 03042A 22083.70108980 .00000618 00000-0 11851-3 0 9991
2 27939 98.1765 224.5170 0014221 114.4323 245.8371 14.67192224988617
NOAA-18
1 28654U 05018A 22083.85407202 .00000125 00000-0 91776-4 0 9994
2 28654 98.9565 154.3351 0013976 206.6543 153.3911 14.12702695868128
CO-58
1 28895U 05043F 22083.30510616 .00000667 00000-0 13558-3 0 9995
2 28895 98.0916 216.0751 0017563 52.6474 307.6326 14.64151414874950
Falconsat-3
1 30776U 07006E 22083.45256993 .00023899 00000-0 45711-3 0 9996
2 30776 35.4329 94.5418 0002972 261.7540 98.2853 15.47140048836384
CO-65
1 32785U 08021C 22083.37735357 .00001352 00000-0 14850-3 0 9993
2 32785 97.6489 56.9893 0013531 149.3939 210.8070 14.89187505753822
AAUSAT2
1 32788U 08021F 22083.48538900 .00003275 00000-0 29207-3 0 9991
2 32788 97.5291 71.8862 0012658 53.7128 306.5261 14.96587856755721
DO-64
1 32789U 08021G 22083.54554951 .00008482 00000-0 50428-3 0 9997
2 32789 97.3498 113.0138 0009241 252.9794 107.0424 15.11471530759098
CO-66
1 32791U 08021J 22083.42629716 .00002655 00000-0 26623-3 0 9995
2 32791 97.6049 62.6289 0014627 110.7869 249.4919 14.92078517754518
RS-30
1 32953U 08025A 22083.55003414 .00000021 00000-0 80971-4 0 9996
2 32953 82.5000 236.7122 0020152 86.8708 273.4674 12.43108023627786
PRISM
1 33493U 09002B 22083.52360432 .00003363 00000-0 28363-3 0 9993
2 33493 98.2256 65.3339 0015537 77.4194 282.8764 14.98820390716250
NOAA-19
1 33591U 09005A 22083.56249307 .00000080 00000-0 68515-4 0 9993
2 33591 99.1590 115.8744 0014762 68.5403 291.7341 14.12540257676201
SRMSAT
1 37841U 11058D 22083.23744892 .00000352 00000-0 48419-4 0 9992
2 37841 19.9730 50.0059 0012065 127.4742 262.9576 14.10732918539194
HRBE
1 37855U 11061F 22083.49077154 .00005474 00000-0 25511-3 0 9996
2 37855 101.7060 157.8909 0159512 316.4344 42.4362 15.10134674568408
RS-40
1 38735U 12041C 22083.47001670 .00000054 00000-0 31762-3 0 9995
2 38735 82.4790 318.5002 0016463 193.6038 166.4600 12.42585071437964
ZACUBE-1
1 39417U 13066B 22083.50677381 .00001620 00000-0 20525-3 0 9998
2 39417 97.6283 58.9031 0057246 324.5756 35.1661 14.81972875450545
Delfi-N3xt
1 39428U 13066N 22083.37808020 .00001276 00000-0 20555-3 0 9991
2 39428 97.8090 21.4600 0118031 189.1030 170.8037 14.68636227446049
GOMX-1
1 39430U 13066Q 22083.47590315 .00001039 00000-0 19501-3 0 9996
2 39430 97.8142 355.5214 0148982 313.2767 45.6076 14.59947420443899
LO-74
1 39440U 13066AA 22083.42596875 .00001593 00000-0 22320-3 0 9997
2 39440 97.7169 44.6243 0080553 48.0679 312.7361 14.76650705447738
AO-73
1 39444U 13066AE 22083.44821105 .00001914 00000-0 23573-3 0 9998
2 39444 97.6169 61.2441 0055918 313.3696 46.2867 14.82977207448928
SPROUT
1 39770U 14029E 22083.58510868 .00003778 00000-0 39997-3 0 9993
2 39770 97.9300 200.1274 0008598 13.3148 346.8266 14.89737103425023
DTUSAT-2
1 40030U 14033W 22083.27729770 .00001663 00000-0 18041-3 0 9997
2 40030 97.9329 15.7573 0011306 342.0540 18.0276 14.89510027420967
EO-80
1 40032U 14033Y 22083.38209514 .00001632 00000-0 17725-3 0 9994
2 40032 97.9335 15.8740 0011251 342.8432 17.2403 14.89476599420957
HODOYOSHI-1
1 40299U 14070B 22083.58274841 .00003424 00000-0 13581-3 0 9994
2 40299 97.2514 154.2320 0014239 80.0991 18.2012 15.25940846410112
FIREBIRD FU3
1 40377U 15003B 22083.50569676 .00011492 00000-0 37526-3 0 9992
2 40377 99.1127 289.6542 0106935 312.5791 46.6456 15.26552533395443
FIREBIRD FU4
1 40378U 15003C 22083.53616632 .00010811 00000-0 35244-3 0 9990
2 40378 99.1130 289.8834 0106922 312.1408 47.0777 15.26629541395457
GRIFEX
1 40379U 15003D 22083.51746874 .00006584 00000-0 24733-3 0 9994
2 40379 99.1196 276.6405 0120500 351.8654 8.0619 15.21058433394709
XW-2A
1 40903U 15049E 22083.91985045 .00013901 00000-0 25166-3 0 9998
2 40903 97.1944 142.4986 0012412 73.0698 44.6362 15.49679930366158
XW-2C
1 40906U 15049H 22083.60014981 .00003987 00000-0 19904-3 0 9995
2 40906 97.4946 87.7524 0012392 298.7499 180.8423 15.18015158360042
XW-2D
1 40907U 15049J 22083.58912376 .00004469 00000-0 21958-3 0 9996
2 40907 97.4933 87.6594 0011598 293.7188 183.6076 15.18509527360089
LILACSAT-2
1 40908U 15049K 22083.58586497 .00002325 00000-0 12718-3 0 9991
2 40908 97.5165 85.0501 0014170 315.7360 162.6165 15.15183688359632
XW-2E
1 40909U 15049L 22083.56785356 .00006477 00000-0 28904-3 0 9991
2 40909 97.4685 92.0076 0010382 272.5240 205.7612 15.21679583360495
XW-2F
1 40910U 15049M 22083.59827713 .00006558 00000-0 29692-3 0 9995
2 40910 97.4757 91.1520 0011498 273.5804 205.5283 15.21169485360270
XW-2B
1 40911U 15049N 22083.60828943 .00004442 00000-0 21892-3 0 9998
2 40911 97.4930 88.3058 0011564 296.0182 180.9766 15.18410871359972
DCBB
1 40912U 15049P 22083.56980962 .00007223 00000-0 30071-3 0 9993
2 40912 97.4415 95.4871 0011750 235.3738 244.4493 15.23988328360814
TW-1A
1 40928U 15051D 22083.56100854 .00024313 00000-0 39141-3 0 9993
2 40928 97.0509 107.3305 0007735 357.2184 154.7305 15.52924590365030
